Location: ???????
(55.4362°N, 38.1183°E)
Time: 17:21:03
(UTC+00:00)

Cosmos 2333 Rocket - Pass Details

Date: 27 October 2021
Orbit: 837 x 865 km, 70.8° (Epoch: 04 December)

Event Time Altitude Azimuth Distance (km) Brightness Sun altitude
Rises 17:48:16 0° 231° (SW) 3,400 5.6 -32.4°
Reaches altitude 10° 17:50:46 10° 236° (WSW) 2,472 4.9 -32.7°
Enters shadow 17:55:44 51° 291° (WNW) 1,073 2.9 -33.3°
